• En Estados Unidos
  • Lista de países
  • Para 7 días
  • Temperatura del agua
  • Mapa Satelital
  • El tiempo en el mapa
  • Informadores
  • user-avatar
    Iniciar sesión

    Tiempo cada hora Satif

    Hoy, 20 Enero, Sábado

    Tiempo Temperatura Precipitaciones Viento Presión Humedad
    00:00 +5°C° 0 mm 4 mps 671 mmHg 84%
    01:00 +5°C° 0,1 mm 4 mps 671 mmHg 85%
    02:00 +5°C° 0,1 mm 4 mps 671 mmHg 86%
    03:00 +4°C° 0,1 mm 4 mps 671 mmHg 87%
    04:00 +4°C° 0,2 mm 4 mps 672 mmHg 88%
    05:00 +4°C° 0,2 mm 4 mps 672 mmHg 88%
    06:00 +4°C° 0,2 mm 4 mps 672 mmHg 89%
    07:00 +5°C° 0,2 mm 3 mps 673 mmHg 87%
    08:00 +5°C° 0,2 mm 3 mps 673 mmHg 85%
    09:00 +5°C° 0,2 mm 3 mps 674 mmHg 84%
    10:00 +7°C° 0,1 mm 3 mps 674 mmHg 80%
    11:00 +6°C° 0,1 mm 4 mps 674 mmHg 77%
    12:00 +7°C° 0,1 mm 4 mps 674 mmHg 74%
    13:00 +7°C° 0 mm 4 mps 674 mmHg 71%
    14:00 +7°C° 0 mm 4 mps 674 mmHg 68%
    15:00 +7°C° 0 mm 4 mps 674 mmHg 66%
    16:00 +7°C° 0 mm 3 mps 674 mmHg 71%
    17:00 +5°C° 0 mm 3 mps 674 mmHg 75%
    18:00 +5°C° 0 mm 2 mps 674 mmHg 80%
    19:00 +5°C° 0 mm 2 mps 674 mmHg 82%
    20:00 +5°C° 0 mm 2 mps 674 mmHg 84%
    21:00 +4°C° 0 mm 2 mps 674 mmHg 86%
    22:00 +4°C° 0 mm 2 mps 674 mmHg 86%
    23:00 +4°C° 0 mm 2 mps 674 mmHg 87%

    Mañana, 21 Enero, Domingo

    Tiempo Temperatura Precipitaciones Viento Presión Humedad
    00:00 +4°C° 0 mm 2 mps 674 mmHg 87%
    01:00 +4°C° 0 mm 2 mps 674 mmHg 83%
    02:00 +4°C° 0 mm 2 mps 673 mmHg 79%
    03:00 +4°C° 0 mm 2 mps 673 mmHg 75%
    04:00 +4°C° 0 mm 2 mps 673 mmHg 73%
    05:00 +4°C° 0 mm 2 mps 673 mmHg 71%
    06:00 +4°C° 0 mm 2 mps 673 mmHg 68%
    07:00 +6°C° 0 mm 2 mps 674 mmHg 64%
    08:00 +7°C° 0 mm 3 mps 675 mmHg 60%
    09:00 +9°C° 0 mm 3 mps 675 mmHg 55%
    10:00 +10°C° 0 mm 3 mps 676 mmHg 55%
    11:00 +11°C° 0 mm 4 mps 676 mmHg 55%
    12:00 +12°C° 0 mm 5 mps 676 mmHg 55%
    13:00 +12°C° 0 mm 5 mps 676 mmHg 57%
    14:00 +12°C° 0 mm 4 mps 676 mmHg 58%
    15:00 +12°C° 0 mm 4 mps 676 mmHg 59%
    16:00 +11°C° 0 mm 4 mps 676 mmHg 66%
    17:00 +9°C° 0 mm 3 mps 675 mmHg 74%
    18:00 +8°C° 0 mm 2 mps 675 mmHg 81%
    19:00 +8°C° 0 mm 2 mps 676 mmHg 83%
    20:00 +7°C° 0 mm 2 mps 676 mmHg 85%
    21:00 +7°C° 0 mm 2 mps 676 mmHg 87%
    22:00 +7°C° 0 mm 2 mps 676 mmHg 88%
    23:00 +6°C° 0 mm 2 mps 676 mmHg 88%

    Pasado mañana, 22 Enero, Lunes

    Tiempo Temperatura Precipitaciones Viento Presión Humedad
    00:00 +6°C° 0 mm 2 mps 676 mmHg 89%
    01:00 +6°C° 0 mm 2 mps 676 mmHg 89%
    02:00 +6°C° 0 mm 2 mps 676 mmHg 89%
    03:00 +5°C° 0 mm 2 mps 676 mmHg 88%
    04:00 +5°C° 0 mm 2 mps 676 mmHg 88%
    05:00 +6°C° 0 mm 1 mps 676 mmHg 88%
    06:00 +6°C° 0 mm 1 mps 676 mmHg 88%
    07:00 +7°C° 0 mm 1 mps 677 mmHg 82%
    08:00 +9°C° 0 mm 1 mps 677 mmHg 77%
    09:00 +10°C° 0 mm 1 mps 678 mmHg 71%
    10:00 +12°C° 0 mm 2 mps 678 mmHg 65%
    11:00 +13°C° 0 mm 2 mps 678 mmHg 59%
    12:00 +14°C° 0 mm 3 mps 678 mmHg 53%
    13:00 +14°C° 0 mm 3 mps 678 mmHg 52%
    14:00 +14°C° 0 mm 3 mps 678 mmHg 51%
    15:00 +14°C° 0 mm 3 mps 678 mmHg 50%
    16:00 +13°C° 0 mm 3 mps 678 mmHg 57%
    17:00 +12°C° 0 mm 2 mps 677 mmHg 65%
    18:00 +9°C° 0 mm 2 mps 677 mmHg 73%
    19:00 +10°C° 0 mm 1 mps 677 mmHg 75%
    20:00 +9°C° 0 mm 1 mps 677 mmHg 78%
    21:00 +9°C° 0 mm 1 mps 678 mmHg 81%
    22:00 +8°C° 0 mm 1 mps 677 mmHg 82%
    23:00 +8°C° 0 mm 1 mps 677 mmHg 83%

    23 Enero, Martes

    Tiempo Temperatura Precipitaciones Viento Presión Humedad
    00:00 +8°C° 0 mm 1 mps 677 mmHg 84%
    01:00 +7°C° 0 mm 1 mps 677 mmHg 84%
    02:00 +7°C° 0 mm 1 mps 677 mmHg 84%
    03:00 +7°C° 0 mm 1 mps 677 mmHg 85%
    04:00 +6°C° 0 mm 1 mps 676 mmHg 85%
    05:00 +6°C° 0 mm 1 mps 676 mmHg 85%
    06:00 +6°C° 0 mm 1 mps 676 mmHg 85%
    07:00 +7°C° 0 mm 1 mps 677 mmHg 79%
    08:00 +9°C° 0 mm 1 mps 678 mmHg 72%
    09:00 +10°C° 0 mm 1 mps 678 mmHg 66%
    10:00 +11°C° 0 mm 1 mps 678 mmHg 61%
    11:00 +13°C° 0 mm 2 mps 678 mmHg 55%
    12:00 +14°C° 0 mm 2 mps 679 mmHg 50%
    13:00 +14°C° 0 mm 2 mps 678 mmHg 49%
    14:00 +13°C° 0 mm 3 mps 678 mmHg 48%
    15:00 +14°C° 0 mm 3 mps 678 mmHg 46%
    16:00 +12°C° 0 mm 3 mps 678 mmHg 55%
    17:00 +10°C° 0 mm 2 mps 678 mmHg 63%
    18:00 +9°C° 0 mm 2 mps 678 mmHg 72%
    19:00 +8°C° 0 mm 2 mps 678 mmHg 75%
    20:00 +8°C° 0 mm 1 mps 678 mmHg 79%
    21:00 +8°C° 0 mm 1 mps 678 mmHg 82%
    22:00 +7°C° 0 mm 1 mps 678 mmHg 83%
    23:00 +7°C° 0 mm 1 mps 678 mmHg 84%

    24 Enero, Miércoles

    Tiempo Temperatura Precipitaciones Viento Presión Humedad
    00:00 +6°C° 0 mm 1 mps 678 mmHg 85%
    01:00 +6°C° 0 mm 1 mps 677 mmHg 86%
    02:00 +6°C° 0 mm 1 mps 677 mmHg 86%
    03:00 +6°C° 0 mm 1 mps 677 mmHg 87%
    04:00 +5°C° 0 mm 1 mps 677 mmHg 87%
    05:00 +5°C° 0 mm 1 mps 677 mmHg 87%
    06:00 +5°C° 0 mm 1 mps 677 mmHg 88%
    07:00 +6°C° 0 mm 1 mps 678 mmHg 82%
    08:00 +8°C° 0 mm 1 mps 679 mmHg 76%
    09:00 +9°C° 0 mm 1 mps 679 mmHg 70%
    10:00 +10°C° 0 mm 1 mps 680 mmHg 62%
    11:00 +12°C° 0 mm 1 mps 680 mmHg 54%
    12:00 +13°C° 0 mm 1 mps 680 mmHg 46%
    13:00 +13°C° 0 mm 1 mps 680 mmHg 45%
    14:00 +14°C° 0 mm 1 mps 679 mmHg 43%
    15:00 +14°C° 0 mm 1 mps 679 mmHg 41%
    16:00 +12°C° 0 mm 1 mps 679 mmHg 47%
    17:00 +11°C° 0 mm 1 mps 679 mmHg 53%
    18:00 +10°C° 0 mm 1 mps 679 mmHg 58%
    19:00 +8°C° 0 mm 2 mps 679 mmHg 59%
    20:00 +8°C° 0 mm 2 mps 679 mmHg 60%
    21:00 +7°C° 0 mm 2 mps 679 mmHg 60%
    22:00 +7°C° 0 mm 2 mps 679 mmHg 63%
    23:00 +7°C° 0 mm 2 mps 679 mmHg 65%

    25 Enero, Jueves

    Tiempo Temperatura Precipitaciones Viento Presión Humedad
    00:00 +6°C° 0 mm 2 mps 679 mmHg 68%
    01:00 +5°C° 0 mm 3 mps 679 mmHg 71%
    02:00 +5°C° 0 mm 3 mps 679 mmHg 74%
    03:00 +4°C° 0 mm 3 mps 679 mmHg 77%
    04:00 +4°C° 0 mm 3 mps 679 mmHg 78%
    05:00 +4°C° 0 mm 3 mps 679 mmHg 79%
    06:00 +4°C° 0 mm 3 mps 679 mmHg 80%
    07:00 +5°C° 0 mm 3 mps 679 mmHg 75%
    08:00 +7°C° 0 mm 3 mps 680 mmHg 70%
    09:00 +9°C° 0 mm 3 mps 680 mmHg 65%
    10:00 +10°C° 0 mm 4 mps 680 mmHg 60%
    11:00 +11°C° 0 mm 4 mps 680 mmHg 55%
    12:00 +12°C° 0 mm 4 mps 680 mmHg 50%
    13:00 +12°C° 0 mm 4 mps 680 mmHg 50%
    14:00 +13°C° 0 mm 4 mps 680 mmHg 49%
    15:00 +13°C° 0 mm 4 mps 679 mmHg 49%
    16:00 +11°C° 0 mm 3 mps 679 mmHg 55%
    17:00 +10°C° 0 mm 3 mps 679 mmHg 62%
    18:00 +8°C° 0 mm 2 mps 678 mmHg 68%
    19:00 +8°C° 0 mm 3 mps 678 mmHg 71%
    20:00 +7°C° 0 mm 3 mps 678 mmHg 75%
    21:00 +7°C° 0 mm 3 mps 678 mmHg 78%
    22:00 +5°C° 0 mm 3 mps 678 mmHg 80%
    23:00 +5°C° 0 mm 3 mps 678 mmHg 82%
    Mostrar más